Saint Bonnet de Bellac- Haute Vienne - France
Donnes mto: lundi, 19/03/2012
Date Horaire Temp. E. Hum. E. P.atmo. Pluie Vent Direction Direction Ensoleilleme Solaire P. de rose Temp au vent Rafales
19/03/2012 00:00 4,3 C 92 % 1022,4 hPa 0,0 mm 0,0 km/h (0 Bft) S-SO 202 0 min 0 W/m 3,1 C 4,3 C 0,0 km/h (0 Bft)
19/03/2012 00:10 4,3 C 92 % 1022,6 hPa 0,0 mm 0,0 km/h (0 Bft) S-SO 202 0 min 0 W/m 3,1 C 4,3 C 0,0 km/h (0 Bft)
19/03/2012 00:20 4,3 C 92 % 1022,7 hPa 0,0 mm 0,0 km/h (0 Bft) S-SO 202 0 min 0 W/m 3,1 C 4,3 C 0,0 km/h (0 Bft)
19/03/2012 00:30 4,3 C 92 % 1022,8 hPa 0,0 mm 0,0 km/h (0 Bft) S-SO 202 0 min 0 W/m 3,1 C 4,3 C 0,0 km/h (0 Bft)
19/03/2012 00:40 4,3 C 92 % 1023,0 hPa 0,1 mm 0,0 km/h (0 Bft) S-SO 202 0 min 0 W/m 3,1 C 4,3 C 0,0 km/h (0 Bft)
19/03/2012 00:50 4,3 C 92 % 1022,9 hPa 0,0 mm 0,0 km/h (0 Bft) S-SO 202 0 min 0 W/m 3,1 C 4,3 C 0,0 km/h (0 Bft)
19/03/2012 01:00 4,4 C 93 % 1022,9 hPa 0,0 mm 2,9 km/h (1 Bft) S-SO 202 0 min 0 W/m 3,4 C 4,4 C 3,6 km/h (1 Bft)
19/03/2012 01:10 4,4 C 93 % 1022,9 hPa 0,0 mm 0,0 km/h (0 Bft) S-SO 202 0 min 0 W/m 3,4 C 4,4 C 1,4 km/h (1 Bft)
19/03/2012 01:20 4,4 C 93 % 1023,0 hPa 0,0 mm 0,0 km/h (0 Bft) SO 225 0 min 0 W/m 3,4 C 4,4 C 0,0 km/h (0 Bft)
19/03/2012 01:30 4,4 C 93 % 1023,1 hPa 0,0 mm 0,0 km/h (0 Bft) SO 225 0 min 0 W/m 3,4 C 4,4 C 0,0 km/h (0 Bft)
19/03/2012 01:40 4,4 C 93 % 1023,2 hPa 0,0 mm 0,0 km/h (0 Bft) SO 225 0 min 0 W/m 3,4 C 4,4 C 0,0 km/h (0 Bft)
19/03/2012 01:50 4,5 C 93 % 1023,2 hPa 0,0 mm 0,0 km/h (0 Bft) SO 225 0 min 0 W/m 3,5 C 4,5 C 0,0 km/h (0 Bft)
19/03/2012 02:02 4,5 C 93 % 1023,3 hPa 0,0 mm 0,0 km/h (0 Bft) O-SO 247 0 min 0 W/m 3,5 C 4,5 C 0,0 km/h (0 Bft)
19/03/2012 02:10 4,5 C 93 % 1023,4 hPa 0,0 mm 0,0 km/h (0 Bft) O-SO 247 0 min 0 W/m 3,5 C 4,5 C 0,0 km/h (0 Bft)
19/03/2012 02:20 4,5 C 93 % 1023,4 hPa 0,0 mm 0,0 km/h (0 Bft) O-SO 247 0 min 0 W/m 3,5 C 4,5 C 0,0 km/h (0 Bft)
19/03/2012 02:30 4,6 C 93 % 1023,4 hPa 0,0 mm 0,0 km/h (0 Bft) O 270 0 min 0 W/m 3,6 C 4,6 C 0,0 km/h (0 Bft)
19/03/2012 02:40 4,6 C 93 % 1023,6 hPa 0,0 mm 0,0 km/h (0 Bft) O 270 0 min 0 W/m 3,6 C 4,6 C 0,0 km/h (0 Bft)
19/03/2012 02:50 4,6 C 93 % 1023,7 hPa 0,0 mm 0,0 km/h (0 Bft) O 270 0 min 0 W/m 3,6 C 4,6 C 0,0 km/h (0 Bft)
19/03/2012 03:00 4,6 C 93 % 1023,7 hPa 0,0 mm 0,0 km/h (0 Bft) O-NO 292 0 min 0 W/m 3,6 C 4,6 C 0,0 km/h (0 Bft)
19/03/2012 03:10 4,6 C 93 % 1023,7 hPa 0,0 mm 0,0 km/h (0 Bft) O-NO 292 0 min 0 W/m 3,6 C 4,6 C 0,0 km/h (0 Bft)
19/03/2012 03:20 4,6 C 93 % 1023,8 hPa 0,1 mm 0,0 km/h (0 Bft) O-NO 292 0 min 0 W/m 3,6 C 4,6 C 0,0 km/h (0 Bft)
19/03/2012 03:30 4,8 C 93 % 1023,8 hPa 0,0 mm 3,2 km/h (1 Bft) O-NO 292 0 min 0 W/m 3,8 C 4,8 C 3,2 km/h (1 Bft)
19/03/2012 03:40 4,8 C 93 % 1023,9 hPa 0,0 mm 5,0 km/h (1 Bft) NO 315 0 min 0 W/m 3,8 C 3,9 C 7,6 km/h (2 Bft)
19/03/2012 03:50 4,9 C 93 % 1023,9 hPa 0,0 mm 1,4 km/h (1 Bft) NO 315 0 min 0 W/m 3,9 C 4,9 C 7,2 km/h (2 Bft)
19/03/2012 04:00 4,9 C 93 % 1024,1 hPa 0,0 mm 1,4 km/h (1 Bft) NO 315 0 min 0 W/m 3,9 C 4,9 C 3,6 km/h (1 Bft)
19/03/2012 04:10 4,9 C 93 % 1024,1 hPa 0,0 mm 0,0 km/h (0 Bft) NO 315 0 min 0 W/m 3,9 C 4,9 C 0,0 km/h (0 Bft)
19/03/2012 04:20 4,9 C 93 % 1024,2 hPa 0,0 mm 0,0 km/h (0 Bft) N-NO 337 0 min 0 W/m 3,9 C 4,9 C 0,0 km/h (0 Bft)
19/03/2012 04:30 5,0 C 93 % 1024,3 hPa 0,0 mm 4,0 km/h (1 Bft) O-NO 292 0 min 0 W/m 4,0 C 5,0 C 6,1 km/h (2 Bft)
19/03/2012 04:40 5,0 C 93 % 1024,4 hPa 0,0 mm 0,0 km/h (0 Bft) N-NO 337 0 min 0 W/m 4,0 C 5,0 C 0,0 km/h (0 Bft)
19/03/2012 04:50 5,1 C 93 % 1024,4 hPa 0,0 mm 0,0 km/h (0 Bft) N 360 0 min 0 W/m 4,1 C 5,1 C 0,0 km/h (0 Bft)
19/03/2012 05:00 5,1 C 93 % 1024,5 hPa 0,0 mm 0,0 km/h (0 Bft) N 360 0 min 0 W/m 4,1 C 5,1 C 0,0 km/h (0 Bft)
19/03/2012 05:10 5,1 C 93 % 1024,6 hPa 0,0 mm 0,0 km/h (0 Bft) N-NE 22 0 min 0 W/m 4,1 C 5,1 C 0,0 km/h (0 Bft)
19/03/2012 05:20 5,1 C 93 % 1024,7 hPa 0,0 mm 2,9 km/h (1 Bft) N-NO 337 0 min 0 W/m 4,1 C 5,1 C 4,3 km/h (1 Bft)
19/03/2012 05:30 5,1 C 93 % 1024,8 hPa 0,0 mm 0,0 km/h (0 Bft) N-NO 337 0 min 0 W/m 4,1 C 5,1 C 3,2 km/h (1 Bft)
19/03/2012 05:40 5,1 C 93 % 1024,9 hPa 0,0 mm 1,4 km/h (1 Bft) NO 315 0 min 0 W/m 4,1 C 5,1 C 4,3 km/h (1 Bft)
19/03/2012 05:50 5,1 C 93 % 1025,1 hPa 0,0 mm 0,0 km/h (0 Bft) N-NO 337 0 min 0 W/m 4,1 C 5,1 C 3,2 km/h (1 Bft)
19/03/2012 06:00 5,1 C 93 % 1025,2 hPa 0,0 mm 0,0 km/h (0 Bft) N 360 0 min 0 W/m 4,1 C 5,1 C 3,2 km/h (1 Bft)
19/03/2012 06:10 5,1 C 93 % 1025,3 hPa 0,0 mm 0,4 km/h (0 Bft) N 360 0 min 0 W/m 4,1 C 5,1 C 3,6 km/h (1 Bft)
19/03/2012 06:20 5,1 C 93 % 1025,4 hPa 0,0 mm 2,9 km/h (1 Bft) N-NO 337 0 min 0 W/m 4,1 C 5,1 C 7,9 km/h (2 Bft)
19/03/2012 06:30 5,1 C 93 % 1025,5 hPa 0,0 mm 1,8 km/h (1 Bft) N-NO 337 0 min 0 W/m 4,1 C 5,1 C 3,6 km/h (1 Bft)
19/03/2012 06:40 5,1 C 93 % 1025,7 hPa 0,0 mm 1,8 km/h (1 Bft) N-NO 337 0 min 0 W/m 4,1 C 5,1 C 4,0 km/h (1 Bft)
19/03/2012 06:50 5,1 C 93 % 1025,8 hPa 0,0 mm 1,8 km/h (1 Bft) N 360 0 min 0 W/m 4,1 C 5,1 C 7,2 km/h (2 Bft)
19/03/2012 07:00 5,1 C 93 % 1026,1 hPa 0,0 mm 0,0 km/h (0 Bft) N-NO 337 0 min 0 W/m 4,1 C 5,1 C 0,0 km/h (0 Bft)
19/03/2012 07:10 5,1 C 93 % 1026,3 hPa 0,0 mm 0,0 km/h (0 Bft) NO 315 0 min 0 W/m 4,1 C 5,1 C 0,0 km/h (0 Bft)
19/03/2012 07:20 5,1 C 93 % 1026,5 hPa 0,0 mm 0,0 km/h (0 Bft) N-NE 22 2 min 0 W/m 4,1 C 5,1 C 0,0 km/h (0 Bft)
19/03/2012 07:30 5,1 C 93 % 1026,6 hPa 0,0 mm 0,0 km/h (0 Bft) N-NE 22 2 min 0 W/m 4,1 C 5,1 C 0,0 km/h (0 Bft)
19/03/2012 07:40 5,1 C 93 % 1026,8 hPa 0,0 mm 1,4 km/h (1 Bft) N-NO 337 2 min 0 W/m 4,1 C 5,1 C 4,3 km/h (1 Bft)
19/03/2012 07:50 5,1 C 93 % 1026,9 hPa 0,0 mm 0,0 km/h (0 Bft) N-NO 337 2 min 0 W/m 4,1 C 5,1 C 0,0 km/h (0 Bft)
19/03/2012 08:00 5,1 C 93 % 1027,0 hPa 0,0 mm 0,0 km/h (0 Bft) N 360 2 min 0 W/m 4,1 C 5,1 C 0,0 km/h (0 Bft)
19/03/2012 08:10 5,1 C 93 % 1027,1 hPa 0,0 mm 0,0 km/h (0 Bft) N-NE 22 2 min 0 W/m 4,1 C 5,1 C 0,0 km/h (0 Bft)
19/03/2012 08:20 5,1 C 93 % 1027,2 hPa 0,0 mm 0,4 km/h (0 Bft) N 360 2 min 0 W/m 4,1 C 5,1 C 2,9 km/h (1 Bft)
19/03/2012 08:30 5,2 C 93 % 1027,4 hPa 0,0 mm 2,5 km/h (1 Bft) N-NO 337 2 min 0 W/m 4,2 C 5,2 C 8,3 km/h (2 Bft)
19/03/2012 08:40 5,2 C 93 % 1027,5 hPa 0,0 mm 1,1 km/h (1 Bft) N 360 2 min 0 W/m 4,2 C 5,2 C 1,4 km/h (1 Bft)
19/03/2012 08:50 5,3 C 93 % 1027,7 hPa 0,0 mm 1,4 km/h (1 Bft) NO 315 2 min 0 W/m 4,3 C 5,3 C 10,8 km/h (2 Bft)
19/03/2012 09:00 5,3 C 93 % 1027,9 hPa 0,0 mm 0,4 km/h (0 Bft) NE 45 2 min 0 W/m 4,3 C 5,3 C 0,4 km/h (0 Bft)
19/03/2012 09:10 5,4 C 93 % 1028,1 hPa 0,0 mm 1,1 km/h (1 Bft) N-NE 22 2 min 0 W/m 4,4 C 5,4 C 1,4 km/h (1 Bft)
19/03/2012 09:20 5,4 C 93 % 1028,2 hPa 0,0 mm 3,2 km/h (1 Bft) N-NE 22 2 min 0 W/m 4,4 C 5,4 C 4,3 km/h (1 Bft)
19/03/2012 09:30 5,5 C 92 % 1028,4 hPa 0,0 mm 0,7 km/h (0 Bft) N-NO 337 2 min 0 W/m 4,3 C 5,5 C 6,8 km/h (2 Bft)
19/03/2012 09:40 5,5 C 92 % 1028,6 hPa 0,0 mm 9,7 km/h (2 Bft) N 360 2 min 0 W/m 4,3 C 3,3 C 20,5 km/h (4 Bft)
19/03/2012 09:50 5,6 C 92 % 1028,7 hPa 0,0 mm 3,6 km/h (1 Bft) N-NO 337 2 min 0 W/m 4,4 C 5,6 C 7,6 km/h (2 Bft)
19/03/2012 10:00 5,7 C 92 % 1028,9 hPa 0,0 mm 2,9 km/h (1 Bft) N-NE 22 2 min 0 W/m 4,5 C 5,7 C 4,3 km/h (1 Bft)
19/03/2012 10:10 5,7 C 91 % 1029,0 hPa 0,0 mm 11,2 km/h (2 Bft) NO 315 2 min 0 W/m 4,3 C 3,3 C 19,1 km/h (3 Bft)
19/03/2012 10:20 5,6 C 90 % 1029,2 hPa 0,0 mm 1,1 km/h (1 Bft) N-NE 22 2 min 0 W/m 4,1 C 5,6 C 6,8 km/h (2 Bft)
19/03/2012 10:30 5,5 C 90 % 1029,3 hPa 0,0 mm 6,8 km/h (2 Bft) N-NE 22 2 min 0 W/m 4,0 C 4,1 C 7,2 km/h (2 Bft)
19/03/2012 10:40 5,4 C 89 % 1029,4 hPa 0,0 mm 7,6 km/h (2 Bft) NO 315 2 min 0 W/m 3,7 C 3,7 C 10,1 km/h (2 Bft)
19/03/2012 10:50 5,4 C 89 % 1029,5 hPa 0,0 mm 7,6 km/h (2 Bft) N 360 2 min 0 W/m 3,7 C 3,7 C 7,6 km/h (2 Bft)
19/03/2012 11:00 5,4 C 89 % 1029,7 hPa 0,0 mm 2,2 km/h (1 Bft) O-SO 247 2 min 0 W/m 3,7 C 5,4 C 8,3 km/h (2 Bft)
19/03/2012 11:10 5,5 C 89 % 1029,8 hPa 0,0 mm 1,1 km/h (1 Bft) N-NO 337 2 min 0 W/m 3,8 C 5,5 C 1,1 km/h (1 Bft)
19/03/2012 11:20 5,6 C 88 % 1029,8 hPa 0,0 mm 1,4 km/h (1 Bft) N-NE 22 2 min 0 W/m 3,8 C 5,6 C 3,2 km/h (1 Bft)
19/03/2012 11:30 5,7 C 87 % 1029,9 hPa 0,0 mm 2,5 km/h (1 Bft) N-NO 337 2 min 0 W/m 3,7 C 5,7 C 6,1 km/h (2 Bft)
19/03/2012 11:40 5,8 C 87 % 1030,0 hPa 0,0 mm 0,0 km/h (0 Bft) N 360 2 min 0 W/m 3,8 C 5,8 C 3,2 km/h (1 Bft)
19/03/2012 11:50 5,8 C 86 % 1030,1 hPa 0,0 mm 1,1 km/h (1 Bft) NE 45 2 min 0 W/m 3,6 C 5,8 C 3,6 km/h (1 Bft)
19/03/2012 12:00 5,8 C 86 % 1030,3 hPa 0,0 mm 0,0 km/h (0 Bft) N-NO 337 2 min 0 W/m 3,6 C 5,8 C 3,6 km/h (1 Bft)
19/03/2012 12:10 5,8 C 86 % 1030,4 hPa 0,0 mm 1,4 km/h (1 Bft) N-NO 337 2 min 0 W/m 3,6 C 5,8 C 3,6 km/h (1 Bft)
19/03/2012 12:20 5,9 C 86 % 1030,6 hPa 0,0 mm 1,4 km/h (1 Bft) NO 315 2 min 0 W/m 3,7 C 5,9 C 11,9 km/h (2 Bft)
19/03/2012 12:30 6,0 C 87 % 1030,6 hPa 0,0 mm 4,0 km/h (1 Bft) NO 315 2 min 0 W/m 4,0 C 6,0 C 10,1 km/h (2 Bft)
19/03/2012 12:40 6,3 C 87 % 1030,5 hPa 0,0 mm 1,1 km/h (1 Bft) N-NO 337 2 min 0 W/m 4,3 C 6,3 C 4,3 km/h (1 Bft)
19/03/2012 12:50 6,4 C 86 % 1030,7 hPa 0,0 mm 5,0 km/h (1 Bft) N 360 2 min 0 W/m 4,2 C 5,7 C 5,0 km/h (1 Bft)
19/03/2012 13:00 6,6 C 86 % 1030,7 hPa 0,0 mm 7,9 km/h (2 Bft) N-NO 337 2 min 0 W/m 4,4 C 5,0 C 13,7 km/h (3 Bft)
19/03/2012 13:10 6,5 C 86 % 1030,8 hPa 0,0 mm 6,5 km/h (2 Bft) NO 315 2 min 0 W/m 4,3 C 5,3 C 10,4 km/h (2 Bft)
19/03/2012 13:20 6,4 C 86 % 1030,9 hPa 0,0 mm 3,2 km/h (1 Bft) NE 45 2 min 0 W/m 4,2 C 6,4 C 7,2 km/h (2 Bft)
19/03/2012 13:30 6,4 C 86 % 1030,8 hPa 0,0 mm 7,9 km/h (2 Bft) N-NE 22 2 min 0 W/m 4,2 C 4,8 C 13,7 km/h (3 Bft)
19/03/2012 13:40 6,3 C 86 % 1030,9 hPa 0,0 mm 3,6 km/h (1 Bft) NE 45 2 min 0 W/m 4,1 C 6,3 C 3,6 km/h (1 Bft)
19/03/2012 13:50 6,4 C 85 % 1030,8 hPa 0,0 mm 4,0 km/h (1 Bft) N-NE 22 2 min 0 W/m 4,1 C 6,4 C 9,4 km/h (2 Bft)
19/03/2012 14:00 6,5 C 85 % 1030,9 hPa 0,0 mm 6,8 km/h (2 Bft) N 360 2 min 0 W/m 4,2 C 5,2 C 9,0 km/h (2 Bft)
19/03/2012 14:10 6,6 C 85 % 1031,0 hPa 0,0 mm 5,4 km/h (2 Bft) N-NE 22 2 min 0 W/m 4,3 C 5,8 C 10,4 km/h (2 Bft)
19/03/2012 14:20 6,5 C 85 % 1030,9 hPa 0,0 mm 0,7 km/h (0 Bft) N-NE 22 2 min 0 W/m 4,2 C 6,5 C 0,7 km/h (0 Bft)
19/03/2012 14:30 6,6 C 85 % 1031,0 hPa 0,0 mm 4,0 km/h (1 Bft) N 360 2 min 0 W/m 4,3 C 6,6 C 4,0 km/h (1 Bft)
19/03/2012 14:40 6,6 C 85 % 1030,8 hPa 0,0 mm 3,6 km/h (1 Bft) N-NO 337 2 min 0 W/m 4,3 C 6,6 C 9,0 km/h (2 Bft)
19/03/2012 14:50 6,8 C 85 % 1030,9 hPa 0,0 mm 0,7 km/h (0 Bft) N-NE 22 2 min 0 W/m 4,5 C 6,8 C 0,7 km/h (0 Bft)
19/03/2012 15:00 6,8 C 85 % 1030,9 hPa 0,0 mm 4,0 km/h (1 Bft) N-NE 22 2 min 0 W/m 4,5 C 6,8 C 4,0 km/h (1 Bft)
19/03/2012 15:10 6,9 C 85 % 1030,9 hPa 0,0 mm 1,1 km/h (1 Bft) N-NE 22 2 min 0 W/m 4,6 C 6,9 C 4,3 km/h (1 Bft)
19/03/2012 15:20 6,9 C 84 % 1031,0 hPa 0,0 mm 0,0 km/h (0 Bft) N-NE 22 2 min 0 W/m 4,4 C 6,9 C 2,9 km/h (1 Bft)
19/03/2012 15:30 7,1 C 84 % 1031,0 hPa 0,0 mm 1,4 km/h (1 Bft) N-NE 22 2 min 0 W/m 4,6 C 7,1 C 6,5 km/h (2 Bft)
19/03/2012 15:40 7,4 C 83 % 1031,0 hPa 0,0 mm 8,3 km/h (2 Bft) NE 45 2 min 0 W/m 4,7 C 5,9 C 12,2 km/h (2 Bft)
19/03/2012 15:50 7,5 C 82 % 1031,1 hPa 0,0 mm 5,0 km/h (1 Bft) N 360 2 min 0 W/m 4,6 C 6,9 C 9,7 km/h (2 Bft)
19/03/2012 16:00 7,4 C 81 % 1031,0 hPa 0,0 mm 2,5 km/h (1 Bft) N-NE 22 2 min 0 W/m 4,4 C 7,4 C 7,2 km/h (2 Bft)
19/03/2012 16:10 7,5 C 81 % 1031,1 hPa 0,0 mm 5,8 km/h (2 Bft) O 270 2 min 0 W/m 4,5 C 6,7 C 9,7 km/h (2 Bft)
19/03/2012 16:20 7,5 C 79 % 1031,2 hPa 0,0 mm 5,4 km/h (2 Bft) N-NE 22 2 min 0 W/m 4,1 C 6,8 C 13,7 km/h (3 Bft)
19/03/2012 16:30 7,4 C 80 % 1031,2 hPa 0,0 mm 4,3 km/h (1 Bft) N 360 2 min 0 W/m 4,2 C 7,4 C 12,6 km/h (3 Bft)
19/03/2012 16:40 7,3 C 80 % 1031,2 hPa 0,0 mm 0,7 km/h (0 Bft) NO 315 2 min 0 W/m 4,1 C 7,3 C 3,2 km/h (1 Bft)
19/03/2012 16:50 7,3 C 80 % 1031,2 hPa 0,0 mm 5,8 km/h (2 Bft) N-NE 22 2 min 0 W/m 4,1 C 6,4 C 8,6 km/h (2 Bft)
19/03/2012 17:00 7,3 C 80 % 1031,2 hPa 0,0 mm 0,0 km/h (0 Bft) N-NE 22 2 min 0 W/m 4,1 C 7,3 C 2,9 km/h (1 Bft)
19/03/2012 17:10 7,3 C 80 % 1031,2 hPa 0,0 mm 2,5 km/h (1 Bft) N-NE 22 2 min 0 W/m 4,1 C 7,3 C 6,8 km/h (2 Bft)
19/03/2012 17:20 7,4 C 78 % 1031,2 hPa 0,0 mm 3,6 km/h (1 Bft) N-NE 22 2 min 0 W/m 3,8 C 7,4 C 6,5 km/h (2 Bft)
19/03/2012 17:30 7,4 C 78 % 1031,2 hPa 0,0 mm 1,1 km/h (1 Bft) N-NE 22 2 min 0 W/m 3,8 C 7,4 C 4,0 km/h (1 Bft)
19/03/2012 17:40 7,4 C 79 % 1031,1 hPa 0,0 mm 2,2 km/h (1 Bft) NO 315 2 min 0 W/m 4,0 C 7,4 C 7,2 km/h (2 Bft)
19/03/2012 17:50 7,5 C 79 % 1031,2 hPa 0,0 mm 1,1 km/h (1 Bft) N-NO 337 2 min 0 W/m 4,1 C 7,5 C 3,6 km/h (1 Bft)
19/03/2012 18:00 7,6 C 79 % 1031,3 hPa 0,0 mm 6,1 km/h (2 Bft) N-NO 337 2 min 0 W/m 4,2 C 6,7 C 9,0 km/h (2 Bft)
19/03/2012 18:10 7,6 C 79 % 1031,4 hPa 0,0 mm 0,7 km/h (0 Bft) NO 315 2 min 0 W/m 4,2 C 7,6 C 4,0 km/h (1 Bft)
19/03/2012 18:20 7,5 C 79 % 1031,4 hPa 0,0 mm 0,4 km/h (0 Bft) N-NO 337 2 min 0 W/m 4,1 C 7,5 C 3,6 km/h (1 Bft)
19/03/2012 18:30 7,4 C 80 % 1031,4 hPa 0,0 mm 0,7 km/h (0 Bft) NO 315 2 min 0 W/m 4,2 C 7,4 C 3,2 km/h (1 Bft)
19/03/2012 18:40 7,3 C 80 % 1031,4 hPa 0,0 mm 0,0 km/h (0 Bft) N 360 2 min 0 W/m 4,1 C 7,3 C 0,0 km/h (0 Bft)
19/03/2012 18:50 7,1 C 80 % 1031,6 hPa 0,0 mm 1,4 km/h (1 Bft) NO 315 2 min 0 W/m 3,9 C 7,1 C 4,0 km/h (1 Bft)
19/03/2012 19:00 7,0 C 80 % 1031,7 hPa 0,0 mm 0,0 km/h (0 Bft) NO 315 0 min 0 W/m 3,8 C 7,0 C 0,0 km/h (0 Bft)
19/03/2012 19:10 6,9 C 80 % 1031,9 hPa 0,0 mm 0,7 km/h (0 Bft) N-NE 22 0 min 0 W/m 3,7 C 6,9 C 4,0 km/h (1 Bft)
19/03/2012 19:20 6,8 C 81 % 1031,9 hPa 0,0 mm 1,8 km/h (1 Bft) N-NE 22 0 min 0 W/m 3,8 C 6,8 C 4,3 km/h (1 Bft)
19/03/2012 19:30 6,8 C 81 % 1032,0 hPa 0,0 mm 4,3 km/h (1 Bft) N-NO 337 0 min 0 W/m 3,8 C 6,8 C 4,3 km/h (1 Bft)
19/03/2012 19:40 6,7 C 81 % 1032,1 hPa 0,0 mm 4,3 km/h (1 Bft) N-NE 22 0 min 0 W/m 3,7 C 6,7 C 7,9 km/h (2 Bft)
19/03/2012 19:50 6,6 C 81 % 1032,2 hPa 0,0 mm 1,4 km/h (1 Bft) N-NE 22 0 min 0 W/m 3,6 C 6,6 C 6,8 km/h (2 Bft)
19/03/2012 20:00 6,6 C 81 % 1032,2 hPa 0,0 mm 6,8 km/h (2 Bft) N-NO 337 0 min 0 W/m 3,6 C 5,3 C 7,9 km/h (2 Bft)
19/03/2012 20:10 6,6 C 81 % 1032,2 hPa 0,0 mm 1,4 km/h (1 Bft) NE 45 0 min 0 W/m 3,6 C 6,6 C 6,5 km/h (2 Bft)
19/03/2012 20:20 6,4 C 80 % 1032,4 hPa 0,0 mm 6,1 km/h (2 Bft) NE 45 0 min 0 W/m 3,2 C 5,3 C 10,4 km/h (2 Bft)
19/03/2012 20:30 6,2 C 80 % 1032,4 hPa 0,0 mm 2,5 km/h (1 Bft) N-NE 22 0 min 0 W/m 3,0 C 6,2 C 7,9 km/h (2 Bft)
19/03/2012 20:40 5,8 C 80 % 1032,7 hPa 0,0 mm 3,2 km/h (1 Bft) NE 45 0 min 0 W/m 2,6 C 5,8 C 6,1 km/h (2 Bft)
19/03/2012 20:50 5,4 C 81 % 1032,8 hPa 0,0 mm 0,4 km/h (0 Bft) N-NE 22 0 min 0 W/m 2,4 C 5,4 C 2,9 km/h (1 Bft)
19/03/2012 21:00 5,1 C 81 % 1032,8 hPa 0,0 mm 0,0 km/h (0 Bft) NE 45 0 min 0 W/m 2,1 C 5,1 C 2,9 km/h (1 Bft)
19/03/2012 21:10 4,8 C 82 % 1032,9 hPa 0,0 mm 0,0 km/h (0 Bft) N-NE 22 0 min 0 W/m 2,0 C 4,8 C 0,0 km/h (0 Bft)
19/03/2012 21:20 4,5 C 82 % 1033,0 hPa 0,0 mm 0,7 km/h (0 Bft) N-NE 22 0 min 0 W/m 1,7 C 4,5 C 4,3 km/h (1 Bft)
19/03/2012 21:30 4,3 C 83 % 1033,1 hPa 0,0 mm 1,1 km/h (1 Bft) N-NE 22 0 min 0 W/m 1,7 C 4,3 C 4,3 km/h (1 Bft)
19/03/2012 21:40 4,0 C 83 % 1033,1 hPa 0,0 mm 0,0 km/h (0 Bft) N-NE 22 0 min 0 W/m 1,4 C 4,0 C 0,0 km/h (0 Bft)
19/03/2012 21:50 3,7 C 83 % 1033,3 hPa 0,0 mm 0,0 km/h (0 Bft) N-NE 22 0 min 0 W/m 1,1 C 3,7 C 0,0 km/h (0 Bft)
19/03/2012 22:00 3,3 C 83 % 1033,3 hPa 0,0 mm 0,0 km/h (0 Bft) E-NE 67 0 min 0 W/m 0,7 C 3,3 C 0,0 km/h (0 Bft)
19/03/2012 22:10 3,1 C 84 % 1033,4 hPa 0,0 mm 0,0 km/h (0 Bft) E-NE 67 0 min 0 W/m 0,7 C 3,1 C 0,0 km/h (0 Bft)
19/03/2012 22:20 2,8 C 84 % 1033,3 hPa 0,0 mm 0,0 km/h (0 Bft) E-NE 67 0 min 0 W/m 0,4 C 2,8 C 0,0 km/h (0 Bft)
19/03/2012 22:30 2,4 C 84 % 1033,4 hPa 0,0 mm 0,0 km/h (0 Bft) E-NE 67 0 min 0 W/m -0,0 C 2,4 C 0,0 km/h (0 Bft)
19/03/2012 22:40 2,1 C 84 % 1033,3 hPa 0,0 mm 0,0 km/h (0 Bft) E-NE 67 0 min 0 W/m -0,3 C 2,1 C 0,0 km/h (0 Bft)
19/03/2012 22:50 1,8 C 85 % 1033,4 hPa 0,0 mm 0,0 km/h (0 Bft) E-NE 67 0 min 0 W/m -0,4 C 1,8 C 0,0 km/h (0 Bft)
19/03/2012 23:00 1,5 C 85 % 1033,6 hPa 0,0 mm 0,0 km/h (0 Bft) E-NE 67 0 min 0 W/m -0,7 C 1,5 C 0,0 km/h (0 Bft)
19/03/2012 23:10 1,4 C 85 % 1033,6 hPa 0,0 mm 0,0 km/h (0 Bft) E-NE 67 0 min 0 W/m -0,8 C 1,4 C 0,0 km/h (0 Bft)
19/03/2012 23:20 1,3 C 85 % 1033,6 hPa 0,0 mm 0,0 km/h (0 Bft) E-NE 67 0 min 0 W/m -0,9 C 1,3 C 0,0 km/h (0 Bft)
_ Min-Heure 23:20 17:30 00:00 - 23:20 - - - - 23:20 23:20 23:20
Minimum _ 1,3 C 78 % 1022,4 hPa - 0,0 km/h (0 Bft) - - - - -0,9 C 1,3 C 0,0 km/h (0 Bft)
_ Max-Heure 18:10 09:20 23:20 03:20 10:10 - - 18:50 23:20 15:40 18:10 09:40
Maximum _ 7,6 C 93 % 1033,6 hPa 0,1 mm 11,2 km/h
NO (2 Bft)
- - 2 min 0 W/m 4,7 C 7,6 C 20,5 km/h
N (4 Bft)
Moyenne _ 5,5 C 87 % 1028,7 hPa #0,2 mm 1,9 km/h (1 Bft) N-NE - #2:20 h 0 W/m 3,6 C 5,3 C 4,2 km/h (1 Bft)
Saint Bonnet de Bellac- Haute Vienne - France